RYR68UM LEGE-EDJA

Flight info

Callsign RYR68UM
Flight time N/A
Altitude 38000
Route BGR L110 DIBER DCT STP DCT RAPED DCT PIGOS DCT EKSID DCT NOSTA DCT NOPMU DCT LAGEN DCT ROBAS DCT TAGIP DCT TISAX DCT UNIMI L12 MOGTI P66 KPT KPT1C
Aircraft B38M/M-SDE1FGHILORVWXY/HB1

Departure

Time 2026-04-26 16:08
Airport Girona-Costa Brava Airport (LEGE)

Arrival

Time N/A
Airport Memmingen Allgau Airport (EDJA)
Time Latitude Longitude Altitude Speed Heading
2026-04-26 15:43 41.89806 2.76449 473 ft 0 kts 105°
2026-04-26 15:57 41.89808 2.76438 473 ft 2 kts 99°
2026-04-26 15:58 41.89811 2.76418 473 ft 2 kts 100°
2026-04-26 15:58 41.89810 2.76398 473 ft 2 kts 71°
2026-04-26 15:58 41.89803 2.76380 473 ft 2 kts 49°
2026-04-26 15:58 41.89791 2.76367 473 ft 2 kts 26°
2026-04-26 15:59 41.89784 2.76363 473 ft 1 kts 13°
2026-04-26 15:59 41.89779 2.76362 473 ft 0 kts 15°
2026-04-26 16:01 41.89780 2.76362 473 ft 0 kts 15°
2026-04-26 16:01 41.89788 2.76365 473 ft 2 kts 15°
2026-04-26 16:01 41.89807 2.76372 473 ft 3 kts 15°
2026-04-26 16:02 41.89835 2.76378 473 ft 4 kts 359°
2026-04-26 16:02 41.89869 2.76363 473 ft 5 kts 320°
2026-04-26 16:02 41.89887 2.76312 473 ft 6 kts 287°
2026-04-26 16:02 41.89896 2.76269 473 ft 7 kts 286°
2026-04-26 16:03 41.89942 2.76220 473 ft 7 kts 11°
2026-04-26 16:03 41.90001 2.76241 473 ft 9 kts 16°
2026-04-26 16:03 41.90072 2.76269 473 ft 11 kts 16°
2026-04-26 16:03 41.90156 2.76302 473 ft 13 kts 16°
2026-04-26 16:04 41.90252 2.76337 473 ft 15 kts 15°
2026-04-26 16:04 41.90360 2.76377 473 ft 17 kts 16°
2026-04-26 16:04 41.90479 2.76424 473 ft 18 kts 16°
2026-04-26 16:04 41.90605 2.76471 473 ft 18 kts 15°
2026-04-26 16:05 41.90723 2.76515 473 ft 17 kts 16°
2026-04-26 16:05 41.90832 2.76557 473 ft 15 kts 16°
2026-04-26 16:05 41.90928 2.76593 473 ft 13 kts 16°
2026-04-26 16:05 41.91017 2.76627 473 ft 12 kts 16°
2026-04-26 16:06 41.91094 2.76657 473 ft 10 kts 15°
2026-04-26 16:06 41.91186 2.76690 473 ft 16 kts 15°
2026-04-26 16:06 41.91312 2.76738 473 ft 18 kts 16°
2026-04-26 16:06 41.91422 2.76735 473 ft 14 kts 330°
2026-04-26 16:07 41.91503 2.76674 473 ft 12 kts 328°
2026-04-26 16:07 41.91533 2.76603 473 ft 6 kts 253°
2026-04-26 16:07 41.91506 2.76580 473 ft 6 kts 198°
2026-04-26 16:07 41.91248 2.76482 473 ft 74 kts 195°
2026-04-26 16:08 41.90541 2.76216 473 ft 135 kts 197°
2026-04-26 16:08 41.89496 2.75800 705 ft 165 kts 197°
2026-04-26 16:08 41.88386 2.75352 1362 ft 169 kts 193°
2026-04-26 16:08 41.87224 2.75012 2012 ft 174 kts 193°
2026-04-26 16:09 41.85985 2.74629 2192 ft 194 kts 194°
2026-04-26 16:09 41.84594 2.74144 2441 ft 211 kts 195°
2026-04-26 16:09 41.83164 2.73630 3059 ft 215 kts 195°
2026-04-26 16:09 41.81663 2.73651 3702 ft 221 kts 159°
2026-04-26 16:10 41.80504 2.74990 4304 ft 230 kts 119°
2026-04-26 16:10 41.80176 2.77102 4914 ft 236 kts 91°
2026-04-26 16:10 41.80177 2.79305 5557 ft 239 kts 90°
2026-04-26 16:10 41.80348 2.81631 5694 ft 265 kts 80°
2026-04-26 16:11 41.80931 2.84131 6023 ft 282 kts 66°
2026-04-26 16:11 41.81822 2.86520 6572 ft 289 kts 62°
2026-04-26 16:11 41.82767 2.88928 7226 ft 292 kts 62°
2026-04-26 16:11 41.83719 2.91387 7848 ft 295 kts 62°
2026-04-26 16:12 41.84644 2.93821 8472 ft 297 kts 62°
2026-04-26 16:12 41.85612 2.96380 9061 ft 300 kts 62°
2026-04-26 16:12 41.87502 3.01444 10220 ft 306 kts 62°
2026-04-26 16:13 41.88486 3.04070 10465 ft 322 kts 61°
2026-04-26 16:13 41.89542 3.06888 10555 ft 341 kts 61°
2026-04-26 16:13 41.90638 3.09819 10953 ft 349 kts 60°
2026-04-26 16:13 41.91724 3.12727 11537 ft 350 kts 60°
2026-04-26 16:14 41.92833 3.15698 12115 ft 351 kts 60°
2026-04-26 16:14 41.93906 3.18667 12613 ft 356 kts 64°
2026-04-26 16:14 41.95218 3.25226 13669 ft 365 kts 77°
2026-04-26 16:15 41.95649 3.28655 14174 ft 369 kts 78°
2026-04-26 16:15 41.96055 3.32125 14681 ft 372 kts 78°
2026-04-26 16:15 41.96455 3.35606 15183 ft 375 kts 78°
2026-04-26 16:16 41.97260 3.42667 16157 ft 381 kts 78°
2026-04-26 16:16 41.97667 3.46252 16631 ft 384 kts 78°
2026-04-26 16:16 41.98074 3.49853 17092 ft 387 kts 78°
2026-04-26 16:16 41.98482 3.53462 17535 ft 390 kts 78°
2026-04-26 16:17 41.98890 3.57088 17973 ft 393 kts 78°
2026-04-26 16:17 41.99303 3.60771 18402 ft 395 kts 78°
2026-04-26 16:17 41.99722 3.64515 18823 ft 398 kts 78°
2026-04-26 16:17 42.00139 3.68248 19220 ft 401 kts 78°
2026-04-26 16:18 42.00559 3.71989 19619 ft 404 kts 78°
2026-04-26 16:18 42.01406 3.79564 20379 ft 409 kts 78°
2026-04-26 16:19 42.02261 3.87280 21110 ft 414 kts 78°
2026-04-26 16:19 42.02692 3.91190 21466 ft 416 kts 78°
2026-04-26 16:19 42.03556 3.99079 22155 ft 421 kts 78°
2026-04-26 16:20 42.03988 4.03040 22487 ft 423 kts 78°
2026-04-26 16:20 42.04858 4.11058 23134 ft 428 kts 78°
2026-04-26 16:20 42.05300 4.15152 23441 ft 431 kts 78°
2026-04-26 16:21 42.05734 4.19185 23749 ft 433 kts 78°
2026-04-26 16:21 42.06177 4.23320 24044 ft 435 kts 78°
2026-04-26 16:21 42.06611 4.27378 24340 ft 437 kts 78°
2026-04-26 16:21 42.07058 4.31574 24629 ft 439 kts 78°
2026-04-26 16:22 42.07581 4.35711 24911 ft 440 kts 73°
2026-04-26 16:22 42.08439 4.39711 25195 ft 438 kts 65°
2026-04-26 16:22 42.09660 4.43546 25478 ft 436 kts 58°
2026-04-26 16:22 42.10812 4.46362 25692 ft 434 kts 53°